TimeMDT,TemperatureF,Dew PointF,Humidity,Sea Level PressureIn,VisibilityMPH,Wind Direction,Wind SpeedMPH,Gust SpeedMPH,PrecipitationIn,Events,Conditions,WindDirDegrees,DateUTC
12:53 AM,51.1,15.1,24,29.69,10.0,West,3.5,-,N/A,,Clear,260,2012-10-03 06:53:00
1:53 AM,45.0,18.0,34,29.70,10.0,West,3.5,-,N/A,,Clear,270,2012-10-03 07:53:00
2:53 AM,45.0,21.9,40,29.69,10.0,Variable,4.6,-,N/A,,Clear,0,2012-10-03 08:53:00
3:53 AM,50.0,24.1,36,29.67,10.0,WSW,3.5,-,N/A,,Clear,250,2012-10-03 09:53:00
4:53 AM,54.0,26.1,34,29.65,10.0,SW,12.7,-,N/A,,Clear,230,2012-10-03 10:53:00
5:53 AM,52.0,26.1,37,29.67,10.0,WSW,10.4,-,N/A,,Clear,240,2012-10-03 11:53:00
6:53 AM,48.9,26.1,41,29.73,10.0,WSW,11.5,-,N/A,,Clear,240,2012-10-03 12:53:00
7:53 AM,57.0,25.0,29,29.72,10.0,SW,17.3,-,N/A,,Clear,230,2012-10-03 13:53:00
9:53 AM,48.0,30.9,52,29.85,10.0,North,23.0,32.2,N/A,,Clear,10,2012-10-03 15:53:00
10:53 AM,48.2,32.0,54,30.01,10.0,NNE,20.7,27.6,N/A,,Clear,30,2012-10-03 16:53:00
11:46 AM,46.4,32.0,57,30.06,10.0,North,20.7,26.5,N/A,,Mostly Cloudy,10,2012-10-03 17:46:00
11:53 AM,45.0,32.0,60,29.98,10.0,NNE,20.7,27.6,N/A,,Mostly Cloudy,20,2012-10-03 17:53:00
12:53 PM,45.0,30.9,58,30.04,10.0,NNE,20.7,28.8,N/A,,Overcast,30,2012-10-03 18:53:00
1:13 PM,46.4,30.2,53,30.10,10.0,NNE,20.7,27.6,N/A,,Overcast,30,2012-10-03 19:13:00
1:53 PM,45.0,28.9,53,30.08,10.0,NNE,20.7,26.5,N/A,,Overcast,30,2012-10-03 19:53:00
2:53 PM,41.0,28.0,60,30.16,10.0,NNE,16.1,24.2,N/A,,Overcast,30,2012-10-03 20:53:00
3:42 PM,39.2,24.8,56,30.21,10.0,NNE,21.9,26.5,N/A,,Overcast,20,2012-10-03 21:42:00
3:53 PM,39.0,25.0,57,30.19,10.0,NNE,19.6,-,N/A,,Overcast,30,2012-10-03 21:53:00
4:53 PM,37.0,24.1,59,30.22,10.0,NNE,18.4,26.5,N/A,,Overcast,30,2012-10-03 22:53:00
5:53 PM,35.1,25.0,67,30.28,10.0,NNE,20.7,25.3,N/A,,Overcast,20,2012-10-03 23:53:00
6:53 PM,34.0,26.1,73,30.32,10.0,NNE,13.8,-,N/A,,Overcast,30,2012-10-04 00:53:00
7:02 PM,33.8,26.6,75,30.33,10.0,NE,17.3,23.0,N/A,,Overcast,40,2012-10-04 01:02:00
7:21 PM,33.8,26.6,75,30.34,10.0,NE,13.8,-,N/A,,Overcast,40,2012-10-04 01:21:00
7:53 PM,34.0,26.1,73,30.31,10.0,NE,11.5,-,N/A,,Overcast,40,2012-10-04 01:53:00
8:53 PM,34.0,26.1,73,30.33,10.0,NE,12.7,-,N/A,,Overcast,40,2012-10-04 02:53:00
9:53 PM,34.0,26.1,73,30.38,10.0,NE,13.8,21.9,N/A,,Overcast,40,2012-10-04 03:53:00
10:53 PM,33.1,25.0,72,30.39,10.0,NNE,16.1,-,N/A,,Overcast,30,2012-10-04 04:53:00
11:53 PM,32.0,25.0,75,30.41,10.0,NE,8.1,-,N/A,,Overcast,50,2012-10-04 05:53:00